Wind_Speed
17 17 17 16 16 16 15 15 15 14 15 16 16 15 14 14 15 14 13 12 11 11 12 12 12 13 14 15 15 16 17 18 20 22 24 24 24 24 24 24 24 24 23
18 18 16 16 15 15 14 14 15 15 15 16 17 16 15 15 15 14 14 13 13 13 14 15 14 14 15 17 18 18 19 20 22 24 24 24 23 22 21 20 20 20 20
17 16 16 15 15 14 14 14 15 15 15 15 17 17 16 16 16 15 14 15 15 16 16 16 16 16 16 18 19 19 19 21 22 23 23 22 20 19 17 16 16 15 15
15 13 13 13 14 14 14 15 15 15 15 15 16 18 17 17 16 16 15 16 17 18 17 17 17 17 18 18 19 19 19 20 21 21 20 19 17 16 14 13 13 12 12
13 11 12 13 14 15 15 16 15 15 14 14 15 17 18 18 17 17 17 18 19 19 18 18 19 19 19 19 20 20 20 19 20 19 19 18 16 15 14 13 13 13 14
11 11 12 13 14 15 15 16 16 15 14 14 15 17 18 19 18 18 18 20 21 21 20 19 19 20 20 20 21 21 21 21 21 20 20 19 18 18 18 18 18 18 18
11 11 12 13 14 15 15 16 17 16 15 14 15 17 19 20 21 21 21 22 22 21 20 19 19 20 20 20 21 22 23 25 25 25 24 24 24 24 24 23 23 24 24
13 12 11 12 13 14 15 16 17 17 17 16 16 17 19 21 22 23 23 23 23 22 20 20 21 21 22 22 23 24 25 27 29 29 29 30 30 30 30 30 30 30 30
14 13 11 12 12 14 15 16 17 18 19 19 19 19 19 20 22 23 24 24 24 23 23 24 25 26 26 27 28 28 29 31 33 34 34 34 35 35 36 36 37 36 36
15 13 12 11 12 13 15 16 17 19 20 22 23 23 22 22 22 23 23 25 26 26 27 28 29 31 31 32 33 34 35 36 38 39 39 39 39 39 40 41 41 41 41
16 15 14 13 12 12 14 16 18 20 21 23 25 26 26 26 26 26 26 26 27 28 30 32 34 35 36 37 37 38 39 40 42 43 43 43 42 42 42 42 43 43 43
17 17 16 15 13 12 14 16 17 19 21 23 25 26 27 28 28 28 28 29 29 31 33 35 37 39 40 41 42 43 43 44 45 45 46 46 45 44 43 43 43 44 44
18 19 18 18 16 15 17 17 18 19 20 21 23 24 25 27 27 28 29 30 31 33 35 38 40 42 43 44 45 46 45 45 45 45 46 47 47 46 46 46 46 46 46
20 20 20 20 19 19 20 20 21 21 21 21 21 22 23 25 26 27 29 31 33 35 38 41 43 44 44 44 44 43 43 42 43 44 45 46 47 47 48 49 49 50 50
22 21 22 22 21 21 22 22 23 23 23 23 22 23 24 25 27 29 32 34 36 38 40 41 41 41 42 42 41 41 41 41 42 43 43 44 45 46 46 47 48 49 50
22 22 22 22 23 23 23 23 24 25 25 25 25 26 27 29 31 33 35 36 37 37 37 36 35 35 35 36 37 38 38 39 40 42 43 44 46 47 48 49 50 51 52
22 22 22 23 23 24 24 25 26 26 27 27 27 29 30 32 34 35 36 36 36 35 35 34 34 34 35 36 37 38 40 42 44 46 47 49 50 51 52 53 54 55 55
22 22 23 24 25 26 26 26 27 28 28 29 30 32 34 35 36 36 36 36 35 35 35 35 36 37 38 40 41 42 44 45 47 49 51 52 53 54 54 55 56 57 56
23 24 25 26 28 28 28 28 29 29 30 31 34 36 37 37 37 37 36 36 36 36 37 38 39 41 42 43 44 45 47 48 49 51 53 55 56 57 58 58 59 60 61
25 27 28 29 29 28 28 28 29 30 31 34 36 38 38 38 37 37 37 37 38 39 39 40 42 43 45 46 47 48 49 51 53 55 57 59 60 62 64 65 66 66 67
28 29 29 28 26 26 26 28 29 31 33 36 37 38 38 38 38 38 39 39 40 41 42 43 44 45 47 49 51 53 54 56 59 61 62 65 66 68 69 70 72 72 73
29 28 26 25 24 25 27 28 31 33 35 37 37 37 38 39 39 40 40 41 42 43 44 45 47 49 51 55 58 60 61 62 64 66 68 69 71 72 73 74 75 76 77
27 25 24 24 25 26 28 30 32 33 35 36 37 38 39 40 41 42 42 42 43 44 46 48 51 54 56 59 63 67 70 71 72 71 72 73 74 75 76 78 79 80 82
25 24 24 25 27 28 30 32 33 34 35 36 37 38 40 41 42 42 43 43 45 47 50 53 56 60 63 66 68 71 74 77 80 81 80 81 81 81 82 83 85 87 89
25 25 26 28 29 31 32 33 34 35 36 38 39 40 41 42 42 43 44 46 49 52 55 59 62 66 69 71 74 76 78 80 83 86 86 87 88 89 90 92 93 95 97
26 27 28 30 31 32 33 34 35 36 38 39 40 41 41 42 43 45 47 50 54 57 61 65 67 70 72 75 78 81 83 86 88 90 91 91 93 93 95 97 99 101 102
Wind_Direction
260 263 267 271 275 278 276 271 265 262 254 249 249 249 249 248 247 246 246 250 258 265 268 272 278 285 290 294 297 300 303 305 306 305 303 300 296 290 284 281 280 282 286
260 264 268 271 276 277 275 271 266 264 259 254 251 249 250 252 251 249 248 250 255 261 265 271 278 284 290 294 297 301 305 310 312 311 308 304 300 296 291 288 286 287 289
264 268 270 272 274 274 273 272 270 269 265 261 252 248 250 254 254 252 252 254 256 259 264 273 280 285 288 291 295 301 308 316 318 318 315 309 304 301 298 295 293 292 291
266 272 275 274 273 274 274 274 277 277 273 265 252 246 249 254 257 258 260 261 262 263 267 275 280 284 286 287 291 298 307 315 320 323 322 317 312 307 303 299 296 294 294
266 273 275 276 275 276 277 277 279 282 278 266 252 246 249 254 259 264 269 271 270 268 270 275 279 282 284 285 287 293 300 307 313 317 319 317 314 311 306 301 296 294 294
264 270 273 276 276 277 279 278 278 281 280 269 257 252 252 256 262 269 273 275 275 274 274 278 282 284 285 284 285 289 293 298 300 303 305 305 304 302 301 298 296 294 292
260 267 273 276 278 279 280 279 277 278 278 275 267 261 259 261 265 269 273 277 279 281 282 284 286 285 284 284 284 286 289 292 293 293 293 294 294 293 293 294 293 292 292
254 262 270 277 281 282 281 279 278 278 277 276 275 272 269 268 269 271 275 278 281 283 285 285 284 283 282 282 283 284 286 288 289 290 290 290 290 289 288 288 289 289 289
249 257 269 281 286 285 283 280 279 278 277 277 277 277 276 275 274 274 275 277 278 279 281 282 282 281 281 282 283 283 284 285 287 288 288 288 288 288 287 286 285 285 284
247 256 269 282 287 287 284 282 280 277 276 275 275 275 276 276 276 276 277 278 278 280 281 282 283 283 284 285 285 284 284 284 285 286 287 287 288 287 285 284 283 282 282
246 255 266 277 284 287 289 287 284 280 277 276 274 274 274 275 276 277 278 280 282 283 284 284 284 284 284 285 285 285 285 285 285 285 286 287 287 286 284 282 281 281 280
246 252 259 269 277 288 296 297 294 288 284 280 277 275 275 275 277 279 280 281 282 282 283 284 284 284 283 284 284 285 285 284 284 284 285 285 286 284 282 281 280 280 279
244 248 254 263 271 284 295 299 299 295 290 286 282 279 278 277 279 280 281 281 281 282 282 282 282 282 283 284 285 285 285 285 283 283 284 284 284 283 281 280 279 278 278
243 247 252 259 270 281 289 293 296 296 295 291 288 285 283 283 283 283 282 282 283 284 283 283 282 283 283 284 284 285 285 284 284 284 284 284 285 284 283 282 281 280 280
243 247 252 260 269 277 283 289 291 292 294 294 292 290 288 286 286 286 285 284 285 285 285 284 284 284 283 283 284 284 284 285 285 285 285 285 286 286 286 286 285 285 284
243 249 256 261 266 273 279 284 287 288 289 290 290 289 288 287 286 286 286 285 286 287 288 287 287 287 287 287 287 288 288 288 287 287 286 286 286 287 286 286 286 285 285
244 251 258 264 268 273 278 281 284 284 284 286 289 291 291 290 289 289 289 288 289 289 289 289 289 289 289 289 289 290 290 290 291 290 290 290 290 289 289 288 287 286 285
249 256 263 268 271 275 277 279 280 280 282 287 291 295 295 295 294 293 291 291 290 290 290 290 291 291 292 292 292 293 293 293 294 294 294 293 293 292 291 290 289 287 286
256 262 267 271 274 275 275 276 276 278 283 288 293 296 297 296 295 294 292 292 291 291 291 292 293 294 295 295 295 296 296 296 296 295 295 294 294 293 291 290 289 288 287
261 266 271 272 273 274 274 275 275 279 285 290 293 296 297 296 295 294 293 293 293 294 295 296 297 297 297 297 297 298 298 298 297 296 295 294 293 292 291 290 289 288 287
265 269 272 272 272 274 275 276 279 283 287 291 293 295 295 295 295 296 297 298 299 299 299 299 299 299 299 299 299 299 299 298 297 296 295 294 292 291 290 289 288 287 286
266 268 269 270 272 273 274 277 281 284 288 291 294 295 296 297 298 299 300 301 301 300 300 299 299 299 299 300 300 299 298 297 296 295 294 293 292 290 290 289 288 287 285
265 266 267 269 272 274 276 279 283 286 289 292 295 296 298 299 300 300 300 300 299 299 298 298 299 299 299 299 299 299 298 297 296 294 293 292 290 289 289 288 287 285 284
264 267 269 271 274 276 279 282 286 289 291 293 295 296 297 298 298 298 298 297 297 297 297 298 299 299 300 300 300 299 299 299 298 297 296 294 293 291 290 288 287 285 284
266 270 273 275 278 280 283 285 288 290 291 293 294 295 296 296 295 294 294 295 296 298 300 301 302 302 302 302 301 301 300 299 298 297 296 295 294 293 292 291 289 287 285
270 274 276 278 280 282 285 286 288 290 291 292 294 294 294 294 294 295 296 298 300 302 303 304 304 303 303 302 302 301 300 299 298 297 296 295 294 293 292 291 290 288 286
Height
5865 5864 5864 5863 5863 5862 5861 5861 5861 5860 5860 5859 5859 5859 5859 5858 5858 5858 5858 5857 5856 5855 5855 5854 5853 5852 5850 5849 5848 5847 5846 5845 5843 5841 5838 5836 5834 5832 5830 5828 5827 5826 5826
5863 5862 5862 5861 5861 5860 5859 5859 5858 5857 5857 5856 5856 5856 5856 5856 5856 5855 5855 5854 5854 5853 5852 5851 5850 5849 5848 5847 5846 5845 5844 5842 5840 5837 5834 5832 5830 5828 5826 5825 5823 5823 5823
5861 5860 5860 5859 5858 5858 5857 5856 5855 5855 5854 5854 5854 5854 5854 5853 5853 5853 5852 5852 5851 5850 5850 5849 5848 5847 5846 5844 5843 5842 5841 5839 5836 5834 5831 5829 5827 5825 5823 5822 5821 5820 5820
5859 5859 5858 5857 5857 5856 5855 5854 5853 5852 5851 5851 5851 5851 5851 5851 5851 5850 5850 5849 5849 5848 5847 5846 5845 5844 5843 5842 5841 5839 5837 5836 5833 5831 5829 5826 5824 5822 5821 5820 5819 5818 5817
5857 5857 5856 5856 5855 5854 5853 5852 5851 5850 5849 5849 5848 5848 5849 5849 5848 5848 5847 5847 5846 5845 5844 5843 5842 5841 5840 5839 5838 5836 5834 5833 5831 5828 5826 5824 5823 5821 5820 5818 5817 5816 5814
5854 5854 5854 5853 5852 5851 5850 5850 5849 5848 5848 5847 5846 5846 5846 5846 5845 5845 5844 5844 5843 5842 5840 5839 5839 5838 5837 5835 5834 5832 5831 5829 5828 5826 5824 5822 5821 5820 5818 5816 5815 5813 5811
5852 5852 5851 5851 5850 5849 5848 5848 5847 5846 5846 5845 5844 5843 5843 5843 5842 5842 5841 5840 5840 5839 5837 5836 5835 5834 5833 5831 5830 5828 5827 5825 5824 5823 5821 5820 5818 5817 5815 5813 5812 5810 5808
5849 5849 5849 5848 5847 5847 5846 5845 5845 5844 5843 5842 5841 5840 5840 5839 5838 5838 5837 5836 5835 5834 5833 5832 5830 5829 5828 5827 5825 5824 5822 5821 5819 5818 5816 5815 5814 5812 5810 5808 5807 5805 5803
5846 5847 5847 5846 5845 5844 5843 5843 5842 5841 5840 5839 5838 5837 5836 5835 5834 5834 5833 5832 5831 5830 5828 5827 5826 5824 5823 5822 5820 5819 5817 5815 5813 5811 5810 5808 5807 5805 5803 5802 5800 5798 5797
5843 5844 5844 5844 5843 5842 5841 5840 5838 5837 5836 5835 5834 5834 5832 5832 5831 5829 5828 5827 5826 5825 5824 5823 5821 5819 5817 5816 5814 5812 5810 5808 5806 5804 5802 5801 5799 5797 5795 5793 5791 5790 5788
5841 5842 5842 5841 5840 5839 5838 5836 5835 5834 5832 5831 5830 5829 5828 5827 5826 5825 5824 5823 5822 5820 5819 5817 5815 5813 5811 5809 5807 5805 5803 5800 5798 5796 5794 5792 5790 5788 5786 5784 5782 5780 5778
5838 5838 5838 5838 5837 5836 5834 5833 5831 5830 5828 5826 5825 5824 5823 5822 5821 5820 5819 5818 5816 5815 5813 5811 5809 5806 5804 5802 5799 5797 5794 5792 5789 5787 5785 5782 5780 5778 5776 5774 5772 5770 5768
5833 5834 5834 5834 5833 5832 5831 5829 5827 5826 5824 5822 5820 5819 5818 5817 5816 5815 5814 5812 5810 5808 5806 5804 5801 5798 5795 5793 5790 5787 5784 5782 5780 5778 5776 5773 5770 5768 5766 5764 5761 5759 5757
5829 5830 5830 5830 5830 5828 5827 5825 5824 5822 5820 5818 5816 5815 5814 5813 5812 5810 5808 5806 5803 5801 5798 5795 5792 5789 5786 5783 5780 5777 5774 5772 5770 5767 5766 5763 5760 5758 5755 5753 5751 5748 5746
5825 5826 5827 5826 5826 5824 5823 5821 5819 5818 5816 5814 5813 5811 5809 5808 5806 5804 5801 5798 5796 5793 5790 5786 5783 5780 5777 5774 5771 5768 5766 5763 5761 5758 5756 5753 5750 5747 5745 5742 5740 5737 5735
5822 5822 5823 5822 5821 5819 5817 5816 5815 5813 5812 5810 5808 5807 5804 5802 5799 5797 5794 5790 5787 5784 5781 5777 5774 5771 5769 5766 5763 5760 5758 5755 5753 5749 5747 5744 5741 5737 5734 5732 5729 5726 5723
5817 5818 5818 5817 5816 5814 5812 5811 5810 5809 5807 5805 5803 5801 5798 5796 5792 5789 5786 5782 5779 5776 5773 5770 5767 5765 5762 5759 5756 5753 5750 5747 5744 5740 5737 5734 5731 5727 5724 5720 5717 5714 5711
5813 5813 5812 5811 5810 5808 5807 5806 5804 5803 5801 5799 5797 5794 5792 5789 5785 5782 5779 5775 5772 5768 5765 5762 5759 5757 5754 5751 5748 5745 5741 5738 5735 5731 5726 5723 5719 5716 5712 5708 5704 5700 5698
5807 5807 5806 5805 5804 5803 5801 5800 5798 5797 5795 5793 5790 5787 5784 5781 5778 5775 5772 5768 5765 5761 5758 5755 5751 5748 5745 5742 5739 5736 5732 5729 5725 5721 5716 5711 5707 5703 5699 5695 5690 5686 5682
5802 5801 5800 5799 5798 5796 5795 5794 5792 5791 5789 5786 5783 5780 5776 5773 5770 5767 5764 5761 5758 5754 5751 5747 5744 5740 5736 5733 5729 5726 5722 5718 5713 5709 5705 5700 5694 5689 5684 5679 5675 5671 5667
5796 5795 5794 5793 5792 5790 5789 5788 5786 5784 5782 5779 5775 5772 5769 5766 5763 5760 5756 5753 5749 5746 5742 5738 5735 5731 5726 5721 5718 5715 5711 5706 5701 5696 5691 5686 5680 5675 5669 5664 5658 5653 5649
5790 5789 5788 5787 5786 5785 5783 5782 5780 5778 5775 5772 5768 5765 5761 5758 5755 5751 5748 5744 5740 5736 5732 5728 5724 5720 5716 5710 5704 5700 5697 5695 5689 5683 5676 5670 5664 5658 5652 5646 5640 5634 5628
5784 5783 5782 5781 5780 5779 5777 5775 5773 5770 5767 5764 5761 5758 5754 5751 5747 5743 5739 5736 5732 5727 5723 5719 5714 5709 5704 5698 5691 5684 5678 5673 5671 5668 5661 5654 5647 5641 5634 5628 5621 5614 5606
5778 5778 5777 5776 5775 5773 5771 5768 5766 5763 5760 5757 5754 5750 5746 5743 5739 5735 5731 5726 5722 5718 5713 5707 5702 5695 5689 5683 5677 5669 5660 5651 5645 5642 5639 5631 5625 5619 5612 5606 5599 5590 5581
5773 5773 5772 5771 5769 5766 5764 5761 5758 5756 5752 5749 5745 5742 5738 5734 5730 5726 5721 5717 5712 5706 5700 5694 5687 5680 5673 5665 5658 5650 5642 5633 5623 5616 5613 5608 5600 5593 5585 5578 5570 5561 5551
5767 5767 5766 5765 5763 5760 5757 5754 5751 5748 5745 5741 5737 5734 5730 5725 5721 5716 5711 5706 5700 5694 5687 5680 5672 5664 5656 5647 5638 5629 5619 5610 5601 5592 5586 5583 5576 5571 5560 5551 5540 5529 5519